Location: Gollag?dem
(17.0207°N, 80.7261°E)
Time: 14:47:05
(UTC+00:00)

FUSE - Pass Details

Date: 03 August 2024
Orbit: 739 x 754 km, 25.0° (Epoch: 11 September)

Event Time Altitude Azimuth Distance (km) Brightness Sun altitude
Exits shadow 22:57:05 21° 295° (WNW) 1,612 5.3 -18.8°
Maximum altitude 23:00:40 75° 18° (NNE) 760 4.0 -18.0°
Drops below altitude 10° 23:05:58 10° 104° (ESE) 2,237 7.2 -16.8°
Sets 23:08:26 0° 106° (ESE) 3,162 8.0 -16.3°
